Weather History for Muscle Shoals, AL

Change the Weather History Date:

Sunday, October 9, 2011

  Actual Average Record
Temperature  
Mean Temperature 66 °F 64 °F  
Max Temperature 79 °F 77 °F 93 °F (1916)
Min Temperature 52 °F 52 °F 30 °F (1915)
Degree Days  
Heating Degree Days 0 3  
Month to date heating degree days 25 23  
Since 1 July heating degree days 34 38  
Cooling Degree Days 1 3  
Month to date cooling degree days 12 30  
Year to date cooling degree days 2146 1832  
Growing Degree Days 15 (Base 50)    
Moisture  
Dew Point 53 °F    
Average Humidity 69    
Maximum Humidity 96    
Minimum Humidity 42    
Precipitation  
Precipitation 0.00 in 0.11 in 1.04 in (2002)
Month to date precipitation 0.00 0.97  
Year to date precipitation 49.15 40.40  
Snow  
Snow 0.00 in - - ()
Month to date snowfall 0.0  
Since 1 July snowfall 0.0  
Since 1 September snowfall 0.0  
Snow Depth 0.00 in    
Sea Level Pressure  
Sea Level Pressure 30.23 in    
Wind  
Wind Speed 6 mph (ESE)    
Max Wind Speed 23 mph    
Max Gust Speed 29 mph    
Visibility 10 miles    
Events      
T = Trace of Precipitation, MM = Missing Value Source: NWS Daily Summary

Daily Weather History Graph

Daily Weather History Graph

Search for Another Location

Airport:

Trip Planner

Search our weather history database for the weather conditions in past years. The results will help you decide how hot, cold, wet, or windy it might be!

Date:

Astronomy

Oct. 09, 2011 Rise Set
Actual Time 6:51 AM CDT 6:23 PM CDT
Civil Twilight 6:25 AM CDT 6:49 PM CDT
Nautical Twilight 5:56 AM CDT 7:18 PM CDT
Astronomical Twilight 5:27 AM CDT 7:47 PM CDT
Moon 4:58 PM CDT (10/9) 4:39 AM CDT (10/9)
Length of Visible Light 12h 23m
Length of Day
11h 32m
Waxing Gibbous, 95% of the Moon is Illuminated
Oct 9
Waxing Gibbous
Oct 11
Full
Oct 19
Last Quarter
Oct 26
New
Nov 2
First Quarter

Hourly Weather History & Observations

Time (CDT) Temp. Dew Point Humidity Pressure Visibility Wind Dir Wind Speed Gust Speed Precip Events Conditions
12:53 AM 60.8 °F 53.6 °F 77% 30.28 in 10.0 mi East 3.5 mph - N/A   Clear
1:53 AM 62.1 °F 54.0 °F 75% 30.26 in 10.0 mi East 5.8 mph - N/A   Clear
2:53 AM 61.0 °F 54.0 °F 78% 30.25 in 10.0 mi East 5.8 mph - N/A   Clear
3:53 AM 57.9 °F 52.0 °F 81% 30.25 in 10.0 mi East 3.5 mph - N/A   Clear
4:53 AM 55.9 °F 51.1 °F 84% 30.26 in 10.0 mi Calm Calm - N/A   Clear
5:53 AM 53.6 °F 50.0 °F 88% 30.28 in 10.0 mi Calm Calm - N/A   Clear
6:53 AM 52.0 °F 50.0 °F 93% 30.29 in 10.0 mi East 3.5 mph - N/A   Clear
7:53 AM 59.0 °F 53.1 °F 81% 30.29 in 10.0 mi East 4.6 mph - N/A   Clear
8:53 AM 62.1 °F 51.1 °F 67% 30.30 in 10.0 mi East 5.8 mph - N/A   Clear
9:53 AM 71.1 °F 50.0 °F 47% 30.30 in 10.0 mi ESE 11.5 mph - N/A   Clear
10:53 AM 75.0 °F 51.1 °F 43% 30.28 in 10.0 mi East 15.0 mph 19.6 mph N/A   Clear
11:53 AM 78.1 °F 55.0 °F 45% 30.26 in 10.0 mi SE 15.0 mph 25.3 mph N/A   Clear
12:53 PM 78.1 °F 54.0 °F 43% 30.24 in 10.0 mi SE 17.3 mph 26.5 mph N/A   Clear
1:53 PM 78.1 °F 55.0 °F 45% 30.20 in 10.0 mi SE 10.4 mph - N/A   Clear
2:53 PM 75.9 °F 54.0 °F 46% 30.19 in 10.0 mi East 9.2 mph - N/A   Clear
3:53 PM 78.1 °F 54.0 °F 43% 30.17 in 10.0 mi ESE 9.2 mph - N/A   Partly Cloudy
4:53 PM 77.0 °F 53.1 °F 43% 30.16 in 10.0 mi SE 10.4 mph - N/A   Clear
5:53 PM 73.9 °F 52.0 °F 46% 30.16 in 10.0 mi ESE 9.2 mph - N/A   Clear
6:53 PM 69.1 °F 54.0 °F 58% 30.17 in 10.0 mi ESE 4.6 mph - N/A   Clear
7:53 PM 64.9 °F 54.0 °F 68% 30.17 in 10.0 mi Calm Calm - N/A   Clear
8:53 PM 63.0 °F 54.0 °F 72% 30.17 in 10.0 mi East 3.5 mph - N/A   Clear
9:53 PM 64.0 °F 54.0 °F 70% 30.17 in 10.0 mi East 4.6 mph - N/A   Clear
10:53 PM 60.1 °F 53.1 °F 78% 30.17 in 10.0 mi Calm Calm - N/A   Clear
11:53 PM 59.0 °F 54.0 °F 83% 30.16 in 10.0 mi Calm Calm - N/A   Partly Cloudy